Year,Month,Day,Hour,Minute,Value (Times are PST for temperature in C)
2010,02,20,00,00,3.30
2010,02,20,00,01,3.30
2010,02,20,00,02,3.30
2010,02,20,00,03,3.30
2010,02,20,00,04,3.30
2010,02,20,00,05,3.30
2010,02,20,00,06,3.30
2010,02,20,00,07,3.30
2010,02,20,00,08,3.30
2010,02,20,00,09,3.30
2010,02,20,00,10,3.30
2010,02,20,00,11,3.30
2010,02,20,00,12,3.30
2010,02,20,00,13,3.30
2010,02,20,00,14,3.30
2010,02,20,00,15,3.30
2010,02,20,00,16,3.30
2010,02,20,00,17,3.30
2010,02,20,00,18,3.30
2010,02,20,00,19,3.30
2010,02,20,00,20,3.30
2010,02,20,00,21,3.30
2010,02,20,00,22,3.30
2010,02,20,00,23,3.30
2010,02,20,00,24,3.30
2010,02,20,00,25,3.30
2010,02,20,00,26,3.30
2010,02,20,00,27,3.30
2010,02,20,00,28,3.30
2010,02,20,00,29,3.30
2010,02,20,00,30,3.20
2010,02,20,00,31,3.20
2010,02,20,00,32,3.20
2010,02,20,00,33,3.20
2010,02,20,00,34,3.20
2010,02,20,00,35,3.20
2010,02,20,00,36,3.20
2010,02,20,00,37,3.20
2010,02,20,00,38,3.20
2010,02,20,00,39,3.20
2010,02,20,00,40,3.20
2010,02,20,00,41,3.20
2010,02,20,00,42,3.20
2010,02,20,00,43,3.20
2010,02,20,00,44,3.20
2010,02,20,00,45,3.20
2010,02,20,00,46,3.10
2010,02,20,00,47,3.10
2010,02,20,00,48,3.10
2010,02,20,00,49,3.10
2010,02,20,00,50,3.10
2010,02,20,00,51,3.10
2010,02,20,00,52,3.10
2010,02,20,00,53,3.10
2010,02,20,00,54,3.10
2010,02,20,00,55,3.10
2010,02,20,00,56,3.10
2010,02,20,00,57,3.10
2010,02,20,00,58,3.10
2010,02,20,00,59,3.10
2010,02,20,01,00,3.10
2010,02,20,01,01,3.10
2010,02,20,01,02,3.10
2010,02,20,01,03,3.10
2010,02,20,01,04,3.10
2010,02,20,01,05,3.10
2010,02,20,01,06,3.10
2010,02,20,01,07,3.10
2010,02,20,01,08,3.10
2010,02,20,01,09,3.10
2010,02,20,01,10,3.20
2010,02,20,01,11,3.20
2010,02,20,01,12,3.20
2010,02,20,01,13,3.20
2010,02,20,01,14,3.20
2010,02,20,01,15,3.20
2010,02,20,01,16,3.20
2010,02,20,01,17,3.20
2010,02,20,01,18,3.20
2010,02,20,01,19,3.20
2010,02,20,01,20,3.20
2010,02,20,01,21,3.20
2010,02,20,01,22,3.20
2010,02,20,01,23,3.20
2010,02,20,01,24,3.20
2010,02,20,01,25,3.20
2010,02,20,01,26,3.30
2010,02,20,01,27,3.30
2010,02,20,01,28,3.30
2010,02,20,01,29,3.30
2010,02,20,01,30,3.30
2010,02,20,01,31,3.30
2010,02,20,01,32,3.30
2010,02,20,01,33,3.30
2010,02,20,01,34,3.30
2010,02,20,01,35,3.30
2010,02,20,01,36,3.30
2010,02,20,01,37,3.30
2010,02,20,01,38,3.30
2010,02,20,01,39,3.30
2010,02,20,01,40,3.30
2010,02,20,01,41,3.30
2010,02,20,01,42,3.30
2010,02,20,01,43,3.30
2010,02,20,01,44,3.30
2010,02,20,01,45,3.40
2010,02,20,01,46,3.40
2010,02,20,01,47,3.40
2010,02,20,01,48,3.40
2010,02,20,01,49,3.40
2010,02,20,01,50,3.40
2010,02,20,01,51,3.40
2010,02,20,01,52,3.50
2010,02,20,01,53,3.50
2010,02,20,01,54,3.50
2010,02,20,01,55,3.50
2010,02,20,01,56,3.50
2010,02,20,01,57,3.50
2010,02,20,01,58,3.50
2010,02,20,01,59,3.60
2010,02,20,02,00,3.60
2010,02,20,02,01,3.60
2010,02,20,02,02,3.60
2010,02,20,02,03,3.60
2010,02,20,02,04,3.60
2010,02,20,02,05,3.60
2010,02,20,02,06,3.70
2010,02,20,02,07,3.70
2010,02,20,02,08,3.70
2010,02,20,02,09,3.70
2010,02,20,02,10,3.70
2010,02,20,02,11,3.80
2010,02,20,02,12,3.80
2010,02,20,02,13,3.80
2010,02,20,02,14,3.80
2010,02,20,02,15,3.90
2010,02,20,02,16,3.90
2010,02,20,02,17,3.90
2010,02,20,02,18,3.90
2010,02,20,02,19,4.00
2010,02,20,02,20,4.00
2010,02,20,02,21,4.00
2010,02,20,02,22,4.00
2010,02,20,02,23,4.10
2010,02,20,02,24,4.10
2010,02,20,02,25,4.10
2010,02,20,02,26,4.10
2010,02,20,02,27,4.20
2010,02,20,02,28,4.20
2010,02,20,02,29,4.20
2010,02,20,02,30,4.20
2010,02,20,02,31,4.20
2010,02,20,02,32,4.20
2010,02,20,02,33,4.20
2010,02,20,02,34,4.20
2010,02,20,02,35,4.20
2010,02,20,02,36,4.20
2010,02,20,02,37,4.20
2010,02,20,02,38,4.20
2010,02,20,02,39,4.30
2010,02,20,02,40,4.30
2010,02,20,02,41,4.30
2010,02,20,02,42,4.40
2010,02,20,02,43,4.40
2010,02,20,02,44,4.40
2010,02,20,02,45,4.40
2010,02,20,02,46,4.40
2010,02,20,02,47,4.40
2010,02,20,02,48,4.40
2010,02,20,02,49,4.40
2010,02,20,02,50,4.40
2010,02,20,02,51,4.40
2010,02,20,02,52,4.40
2010,02,20,02,53,4.40
2010,02,20,02,54,4.40
2010,02,20,02,55,4.30
2010,02,20,02,56,4.30
2010,02,20,02,57,4.30
2010,02,20,02,58,4.30
2010,02,20,02,59,4.30
2010,02,20,03,00,4.30
2010,02,20,03,01,4.30
2010,02,20,03,02,4.20
2010,02,20,03,03,4.20
2010,02,20,03,04,4.20
2010,02,20,03,05,4.20
2010,02,20,03,06,4.20
2010,02,20,03,07,4.20
2010,02,20,03,08,4.20
2010,02,20,03,09,4.20
2010,02,20,03,10,4.20
2010,02,20,03,11,4.20
2010,02,20,03,12,4.20
2010,02,20,03,13,4.20
2010,02,20,03,14,4.10
2010,02,20,03,15,4.10
2010,02,20,03,16,4.10
2010,02,20,03,17,4.10
2010,02,20,03,18,4.10
2010,02,20,03,19,4.00
2010,02,20,03,20,4.00
2010,02,20,03,21,4.00
2010,02,20,03,22,4.00
2010,02,20,03,23,4.00
2010,02,20,03,24,4.00
2010,02,20,03,25,4.00
2010,02,20,03,26,3.90
2010,02,20,03,27,3.90
2010,02,20,03,28,3.90
2010,02,20,03,29,3.90
2010,02,20,03,30,3.90
2010,02,20,03,31,3.90
2010,02,20,03,32,3.90
2010,02,20,03,33,3.80
2010,02,20,03,34,3.80
2010,02,20,03,35,3.80
2010,02,20,03,36,3.80
2010,02,20,03,37,3.80
2010,02,20,03,38,3.80
2010,02,20,03,39,3.80
2010,02,20,03,40,3.80
2010,02,20,03,41,3.80
2010,02,20,03,42,3.80
2010,02,20,03,43,3.80
2010,02,20,03,44,3.80
2010,02,20,03,45,3.80
2010,02,20,03,46,3.80
2010,02,20,03,47,3.80
2010,02,20,03,48,3.80
2010,02,20,03,49,3.80
2010,02,20,03,50,3.80
2010,02,20,03,51,3.80
2010,02,20,03,52,3.80
2010,02,20,03,53,3.80
2010,02,20,03,54,3.80
2010,02,20,03,55,3.80
2010,02,20,03,56,3.80
2010,02,20,03,57,3.80
2010,02,20,03,58,3.80
2010,02,20,03,59,3.80
2010,02,20,04,00,3.80
2010,02,20,04,01,3.80
2010,02,20,04,02,3.80
2010,02,20,04,03,3.80
2010,02,20,04,04,3.80
2010,02,20,04,05,3.80
2010,02,20,04,06,3.80
2010,02,20,04,07,3.80
2010,02,20,04,08,3.80
2010,02,20,04,09,3.80
2010,02,20,04,10,3.80
2010,02,20,04,11,3.80
2010,02,20,04,12,3.80
2010,02,20,04,13,3.80
2010,02,20,04,14,3.80
2010,02,20,04,15,3.80
2010,02,20,04,16,3.80
2010,02,20,04,17,3.80
2010,02,20,04,18,3.80
2010,02,20,04,19,3.80
2010,02,20,04,20,3.80
2010,02,20,04,21,3.80
2010,02,20,04,22,3.80
2010,02,20,04,23,3.80
2010,02,20,04,24,3.80
2010,02,20,04,25,3.80
2010,02,20,04,26,3.80
2010,02,20,04,27,3.80
2010,02,20,04,28,3.70
2010,02,20,04,29,3.70
2010,02,20,04,30,3.70
2010,02,20,04,31,3.70
2010,02,20,04,32,3.70
2010,02,20,04,33,3.70
2010,02,20,04,34,3.70
2010,02,20,04,35,3.70
2010,02,20,04,36,3.70
2010,02,20,04,37,3.60
2010,02,20,04,38,3.60
2010,02,20,04,39,3.60
2010,02,20,04,40,3.60
2010,02,20,04,41,3.50
2010,02,20,04,42,3.50
2010,02,20,04,43,3.50
2010,02,20,04,44,3.50
2010,02,20,04,45,3.50
2010,02,20,04,46,3.50
2010,02,20,04,47,3.50
2010,02,20,04,48,3.50
2010,02,20,04,49,3.40
2010,02,20,04,50,3.40
2010,02,20,04,51,3.40
2010,02,20,04,52,3.40
2010,02,20,04,53,3.40
2010,02,20,04,54,3.40
2010,02,20,04,55,3.30
2010,02,20,04,56,3.30
2010,02,20,04,57,3.30
2010,02,20,04,58,3.30
2010,02,20,04,59,3.30
2010,02,20,05,00,3.30
2010,02,20,05,01,3.30
2010,02,20,05,02,3.30
2010,02,20,05,03,3.30
2010,02,20,05,04,3.30
2010,02,20,05,05,3.30
2010,02,20,05,06,3.30
2010,02,20,05,07,3.30
2010,02,20,05,08,3.30
2010,02,20,05,09,3.30
2010,02,20,05,10,3.30
2010,02,20,05,11,3.30
2010,02,20,05,12,3.30
2010,02,20,05,13,3.30
2010,02,20,05,14,3.30
2010,02,20,05,15,3.30
2010,02,20,05,16,3.30
2010,02,20,05,17,3.30
2010,02,20,05,18,3.30
2010,02,20,05,19,3.30
2010,02,20,05,20,3.30
2010,02,20,05,21,3.30
2010,02,20,05,22,3.30
2010,02,20,05,23,3.30
2010,02,20,05,24,3.30
2010,02,20,05,25,3.30
2010,02,20,05,26,3.30
2010,02,20,05,27,3.30
2010,02,20,05,28,3.30
2010,02,20,05,29,3.30
2010,02,20,05,30,3.30
2010,02,20,05,31,3.30
2010,02,20,05,32,3.30
2010,02,20,05,33,3.30
2010,02,20,05,34,3.30
2010,02,20,05,35,3.20
2010,02,20,05,36,3.20
2010,02,20,05,37,3.20
2010,02,20,05,38,3.20
2010,02,20,05,39,3.20
2010,02,20,05,40,3.20
2010,02,20,05,41,3.20
2010,02,20,05,42,3.10
2010,02,20,05,43,3.10
2010,02,20,05,44,3.10
2010,02,20,05,45,3.10
2010,02,20,05,46,3.10
2010,02,20,05,47,3.10
2010,02,20,05,48,3.10
2010,02,20,05,49,3.10
2010,02,20,05,50,3.10
2010,02,20,05,51,3.10
2010,02,20,05,52,3.10
2010,02,20,05,53,3.10
2010,02,20,05,54,3.10
2010,02,20,05,55,3.10
2010,02,20,05,56,3.10
2010,02,20,05,57,3.10
2010,02,20,05,58,3.10
2010,02,20,05,59,3.10
2010,02,20,06,00,3.10
2010,02,20,06,01,3.00
2010,02,20,06,02,2.90
2010,02,20,06,03,2.90
2010,02,20,06,04,2.90
2010,02,20,06,05,2.90
2010,02,20,06,06,2.90
2010,02,20,06,07,2.90
2010,02,20,06,08,2.90
2010,02,20,06,09,2.90
2010,02,20,06,10,2.90
2010,02,20,06,11,2.90
2010,02,20,06,12,2.90
2010,02,20,06,13,2.90
2010,02,20,06,14,2.90
2010,02,20,06,15,2.90
2010,02,20,06,16,2.80
2010,02,20,06,17,2.80
2010,02,20,06,18,2.80
2010,02,20,06,19,2.80
2010,02,20,06,20,2.80
2010,02,20,06,21,2.80
2010,02,20,06,22,2.80
2010,02,20,06,23,2.80
2010,02,20,06,24,2.70
2010,02,20,06,25,2.70
2010,02,20,06,26,2.70
2010,02,20,06,27,2.70
2010,02,20,06,28,2.70
2010,02,20,06,29,2.70
2010,02,20,06,30,2.70
2010,02,20,06,31,2.70
2010,02,20,06,32,2.70
2010,02,20,06,33,2.70
2010,02,20,06,34,2.70
2010,02,20,06,35,2.70
2010,02,20,06,36,2.70
2010,02,20,06,37,2.70
2010,02,20,06,38,2.70
2010,02,20,06,39,2.70
2010,02,20,06,40,2.70
2010,02,20,06,41,2.60
2010,02,20,06,42,2.60
2010,02,20,06,43,2.60
2010,02,20,06,44,2.60
2010,02,20,06,45,2.60
2010,02,20,06,46,2.60
2010,02,20,06,47,2.60
2010,02,20,06,48,2.60
2010,02,20,06,49,2.60
2010,02,20,06,50,2.60
2010,02,20,06,51,2.60
2010,02,20,06,52,2.60
2010,02,20,06,53,2.60
2010,02,20,06,54,2.50
2010,02,20,06,55,2.50
2010,02,20,06,56,2.50
2010,02,20,06,57,2.50
2010,02,20,06,58,2.50
2010,02,20,06,59,2.50
2010,02,20,07,00,2.50
2010,02,20,07,01,2.50
2010,02,20,07,02,2.50
2010,02,20,07,03,2.50
2010,02,20,07,04,2.50
2010,02,20,07,05,2.50
2010,02,20,07,06,2.50
2010,02,20,07,07,2.50
2010,02,20,07,08,2.40
2010,02,20,07,09,2.40
2010,02,20,07,10,2.40
2010,02,20,07,11,2.40
2010,02,20,07,12,2.40
2010,02,20,07,13,2.40
2010,02,20,07,14,2.40
2010,02,20,07,15,2.40
2010,02,20,07,16,2.40
2010,02,20,07,17,2.40
2010,02,20,07,18,2.40
2010,02,20,07,19,2.40
2010,02,20,07,20,2.40
2010,02,20,07,21,2.40
2010,02,20,07,22,2.30
2010,02,20,07,23,2.30
2010,02,20,07,24,2.30
2010,02,20,07,25,2.30
2010,02,20,07,26,2.30
2010,02,20,07,27,2.30
2010,02,20,07,28,2.30
2010,02,20,07,29,2.30
2010,02,20,07,30,2.30
2010,02,20,07,31,2.30
2010,02,20,07,32,2.20
2010,02,20,07,33,2.20
2010,02,20,07,34,2.20
2010,02,20,07,35,2.20
2010,02,20,07,36,2.20
2010,02,20,07,37,2.20
2010,02,20,07,38,2.20
2010,02,20,07,39,2.20
2010,02,20,07,40,2.20
2010,02,20,07,41,2.20
2010,02,20,07,42,2.20
2010,02,20,07,43,2.20
2010,02,20,07,44,2.20
2010,02,20,07,45,2.20
2010,02,20,07,46,2.20
2010,02,20,07,47,2.20
2010,02,20,07,48,2.20
2010,02,20,07,49,2.20
2010,02,20,07,50,2.20
2010,02,20,07,51,2.20
2010,02,20,07,52,2.20
2010,02,20,07,53,2.20
2010,02,20,07,54,2.20
2010,02,20,07,55,2.20
2010,02,20,07,56,2.20
2010,02,20,07,57,2.20
2010,02,20,07,58,2.20
2010,02,20,07,59,2.20
2010,02,20,08,00,2.20
2010,02,20,08,01,2.20
2010,02,20,08,02,2.20
2010,02,20,08,03,2.20
2010,02,20,08,04,2.20
2010,02,20,08,05,2.20
2010,02,20,08,06,2.20
2010,02,20,08,07,2.20
2010,02,20,08,08,2.20
2010,02,20,08,09,2.20
2010,02,20,08,10,2.20
2010,02,20,08,11,2.20
2010,02,20,08,12,2.30
2010,02,20,08,13,2.30
2010,02,20,08,14,2.40
2010,02,20,08,15,2.40
2010,02,20,08,16,2.40
2010,02,20,08,17,2.50
2010,02,20,08,18,2.50
2010,02,20,08,19,2.50
2010,02,20,08,20,2.60
2010,02,20,08,21,2.60
2010,02,20,08,22,2.60
2010,02,20,08,23,2.70
2010,02,20,08,24,2.70
2010,02,20,08,25,2.70
2010,02,20,08,26,2.70
2010,02,20,08,27,2.70
2010,02,20,08,28,2.80
2010,02,20,08,29,2.80
2010,02,20,08,30,2.90
2010,02,20,08,31,2.90
2010,02,20,08,32,2.90
2010,02,20,08,33,3.00
2010,02,20,08,34,3.10
2010,02,20,08,35,3.10
2010,02,20,08,36,3.10
2010,02,20,08,37,3.20
2010,02,20,08,38,3.30
2010,02,20,08,39,3.30
2010,02,20,08,40,3.40
2010,02,20,08,41,3.50
2010,02,20,08,42,3.60
2010,02,20,08,43,3.80
2010,02,20,08,44,3.90
2010,02,20,08,45,4.00
2010,02,20,08,46,4.10
2010,02,20,08,47,4.20
2010,02,20,08,48,4.20
2010,02,20,08,49,4.30
2010,02,20,08,50,4.40
2010,02,20,08,51,4.50
2010,02,20,08,52,4.50
2010,02,20,08,53,4.60
2010,02,20,08,54,4.70
2010,02,20,08,55,4.80
2010,02,20,08,56,4.90
2010,02,20,08,57,5.00
2010,02,20,08,58,5.10
2010,02,20,08,59,5.10
2010,02,20,09,00,5.20
2010,02,20,09,01,5.30
2010,02,20,09,02,5.40
2010,02,20,09,03,5.60
2010,02,20,09,04,5.80
2010,02,20,09,05,5.90
2010,02,20,09,06,6.00
2010,02,20,09,07,6.10
2010,02,20,09,08,6.20
2010,02,20,09,09,6.30
2010,02,20,09,10,6.40
2010,02,20,09,11,6.40
2010,02,20,09,12,6.50
2010,02,20,09,13,6.60
2010,02,20,09,14,6.70
2010,02,20,09,15,6.80
2010,02,20,09,16,6.80
2010,02,20,09,17,6.80
2010,02,20,09,18,6.80
2010,02,20,09,19,6.90
2010,02,20,09,20,6.90
2010,02,20,09,21,7.00
2010,02,20,09,22,7.00
2010,02,20,09,23,7.10
2010,02,20,09,24,7.10
2010,02,20,09,25,7.10
2010,02,20,09,26,7.20
2010,02,20,09,27,7.30
2010,02,20,09,28,7.30
2010,02,20,09,29,7.30
2010,02,20,09,30,7.40
2010,02,20,09,31,7.40
2010,02,20,09,32,7.40
2010,02,20,09,33,7.50
2010,02,20,09,34,7.50
2010,02,20,09,35,7.60
2010,02,20,09,36,7.60
2010,02,20,09,37,7.60
2010,02,20,09,38,7.70
2010,02,20,09,39,7.70
2010,02,20,09,40,7.80
2010,02,20,09,41,7.80
2010,02,20,09,42,7.90
2010,02,20,09,43,7.90
2010,02,20,09,44,8.00
2010,02,20,09,45,8.10
2010,02,20,09,46,8.10
2010,02,20,09,47,8.20
2010,02,20,09,48,8.20
2010,02,20,09,49,8.20
2010,02,20,09,50,8.30
2010,02,20,09,51,8.30
2010,02,20,09,52,8.30
2010,02,20,09,53,8.40
2010,02,20,09,54,8.50
2010,02,20,09,55,8.50
2010,02,20,09,56,8.60
2010,02,20,09,57,8.70
2010,02,20,09,58,8.70
2010,02,20,09,59,8.70
2010,02,20,10,00,8.70
2010,02,20,10,01,8.70
2010,02,20,10,02,8.70
2010,02,20,10,03,8.70
2010,02,20,10,04,8.80
2010,02,20,10,05,8.90
2010,02,20,10,06,8.90
2010,02,20,10,07,8.90
2010,02,20,10,08,8.90
2010,02,20,10,09,8.90
2010,02,20,10,10,8.90
2010,02,20,10,11,8.90
2010,02,20,10,12,8.90
2010,02,20,10,13,8.90
2010,02,20,10,14,9.00
2010,02,20,10,15,9.00
2010,02,20,10,16,9.00
2010,02,20,10,17,9.00
2010,02,20,10,18,9.10
2010,02,20,10,19,9.10
2010,02,20,10,20,9.20
2010,02,20,10,21,9.10
2010,02,20,10,22,9.10
2010,02,20,10,23,9.10
2010,02,20,10,24,9.10
2010,02,20,10,25,9.00
2010,02,20,10,26,9.00
2010,02,20,10,27,9.10
2010,02,20,10,28,9.20
2010,02,20,10,29,9.20
2010,02,20,10,30,9.30
2010,02,20,10,31,9.30
2010,02,20,10,32,9.40
2010,02,20,10,33,9.40
2010,02,20,10,34,9.40
2010,02,20,10,35,9.40
2010,02,20,10,36,9.40
2010,02,20,10,37,9.30
2010,02,20,10,38,9.30
2010,02,20,10,39,9.30
2010,02,20,10,40,9.30
2010,02,20,10,41,9.40
2010,02,20,10,42,9.40
2010,02,20,10,43,9.40
2010,02,20,10,44,9.40
2010,02,20,10,45,9.40
2010,02,20,10,46,9.40
2010,02,20,10,47,9.40
2010,02,20,10,48,9.40
2010,02,20,10,49,9.40
2010,02,20,10,50,9.50
2010,02,20,10,51,9.60
2010,02,20,10,52,9.70
2010,02,20,10,53,9.70
2010,02,20,10,54,9.80
2010,02,20,10,55,9.80
2010,02,20,10,56,9.70
2010,02,20,10,57,9.70
2010,02,20,10,58,9.80
2010,02,20,10,59,9.80
2010,02,20,11,00,9.80
2010,02,20,11,01,9.80
2010,02,20,11,02,9.80
2010,02,20,11,03,9.80
2010,02,20,11,04,9.80
2010,02,20,11,05,9.70
2010,02,20,11,06,9.80
2010,02,20,11,07,9.90
2010,02,20,11,08,10.00
2010,02,20,11,09,10.10
2010,02,20,11,10,10.20
2010,02,20,11,11,10.30
2010,02,20,11,12,10.30
2010,02,20,11,13,10.40
2010,02,20,11,14,10.50
2010,02,20,11,15,10.60
2010,02,20,11,16,10.60
2010,02,20,11,17,10.60
2010,02,20,11,18,10.60
2010,02,20,11,19,10.60
2010,02,20,11,20,10.60
2010,02,20,11,21,10.60
2010,02,20,11,22,10.60
2010,02,20,11,23,10.60
2010,02,20,11,24,10.60
2010,02,20,11,25,10.50
2010,02,20,11,26,10.40
2010,02,20,11,27,10.40
2010,02,20,11,28,10.40
2010,02,20,11,29,10.40
2010,02,20,11,30,10.50
2010,02,20,11,31,10.60
2010,02,20,11,32,10.70
2010,02,20,11,33,10.80
2010,02,20,11,34,10.80
2010,02,20,11,35,10.80
2010,02,20,11,36,10.90
2010,02,20,11,37,10.90
2010,02,20,11,38,10.90
2010,02,20,11,39,10.90
2010,02,20,11,40,10.90
2010,02,20,11,41,10.90
2010,02,20,11,42,10.80
2010,02,20,11,43,10.70
2010,02,20,11,44,10.70
2010,02,20,11,45,10.70
2010,02,20,11,46,10.70
2010,02,20,11,47,10.60
2010,02,20,11,48,10.60
2010,02,20,11,49,10.60
2010,02,20,11,50,10.50
2010,02,20,11,51,10.40
2010,02,20,11,52,10.40
2010,02,20,11,53,10.50
2010,02,20,11,54,10.60
2010,02,20,11,55,10.60
2010,02,20,11,56,10.60
2010,02,20,11,57,10.60
2010,02,20,11,58,10.60
2010,02,20,11,59,10.60
2010,02,20,12,00,10.50
2010,02,20,12,01,10.40
2010,02,20,12,02,10.40
2010,02,20,12,03,10.40
2010,02,20,12,04,10.40
2010,02,20,12,05,10.40
2010,02,20,12,06,10.60
2010,02,20,12,07,10.70
2010,02,20,12,08,10.90
2010,02,20,12,09,10.90
2010,02,20,12,10,10.90
2010,02,20,12,11,10.90
2010,02,20,12,12,10.90
2010,02,20,12,13,10.90
2010,02,20,12,14,10.90
2010,02,20,12,15,11.00
2010,02,20,12,16,11.20
2010,02,20,12,17,11.30
2010,02,20,12,18,11.50
2010,02,20,12,19,11.60
2010,02,20,12,20,11.60
2010,02,20,12,21,11.60
2010,02,20,12,22,11.60
2010,02,20,12,23,11.70
2010,02,20,12,24,11.80
2010,02,20,12,25,11.80
2010,02,20,12,26,11.80
2010,02,20,12,27,11.80
2010,02,20,12,28,11.60
2010,02,20,12,29,11.70
2010,02,20,12,30,11.80
2010,02,20,12,31,11.80
2010,02,20,12,32,11.80
2010,02,20,12,33,11.70
2010,02,20,12,34,11.60
2010,02,20,12,35,11.40
2010,02,20,12,36,11.40
2010,02,20,12,37,11.30
2010,02,20,12,38,11.40
2010,02,20,12,39,11.30
2010,02,20,12,40,11.30
2010,02,20,12,41,11.40
2010,02,20,12,42,11.50
2010,02,20,12,43,11.70
2010,02,20,12,44,11.80
2010,02,20,12,45,11.80
2010,02,20,12,46,11.80
2010,02,20,12,47,11.90
2010,02,20,12,48,12.00
2010,02,20,12,49,12.00
2010,02,20,12,50,12.10
2010,02,20,12,51,12.20
2010,02,20,12,52,12.30
2010,02,20,12,53,12.30
2010,02,20,12,54,12.30
2010,02,20,12,55,12.40
2010,02,20,12,56,12.50
2010,02,20,12,57,12.70
2010,02,20,12,58,12.80
2010,02,20,12,59,12.70
2010,02,20,13,00,12.60
2010,02,20,13,01,12.50
2010,02,20,13,02,12.40
2010,02,20,13,03,12.30
2010,02,20,13,04,12.20
2010,02,20,13,05,12.20
2010,02,20,13,06,12.10
2010,02,20,13,07,12.20
2010,02,20,13,08,12.40
2010,02,20,13,09,12.50
2010,02,20,13,10,12.60
2010,02,20,13,11,12.60
2010,02,20,13,12,12.70
2010,02,20,13,13,12.80
2010,02,20,13,14,12.90
2010,02,20,13,15,12.90
2010,02,20,13,16,12.90
2010,02,20,13,17,12.80
2010,02,20,13,18,12.70
2010,02,20,13,19,12.60
2010,02,20,13,20,12.50
2010,02,20,13,21,12.50
2010,02,20,13,22,12.60
2010,02,20,13,23,12.80
2010,02,20,13,24,12.90
2010,02,20,13,25,13.00
2010,02,20,13,26,13.10
2010,02,20,13,27,13.10
2010,02,20,13,28,13.20
2010,02,20,13,29,13.20
2010,02,20,13,30,13.30
2010,02,20,13,31,13.30
2010,02,20,13,32,13.40
2010,02,20,13,33,13.50
2010,02,20,13,34,13.50
2010,02,20,13,35,13.50
2010,02,20,13,36,13.60
2010,02,20,13,37,13.50
2010,02,20,13,38,13.50
2010,02,20,13,39,13.40
2010,02,20,13,40,13.40
2010,02,20,13,41,13.30
2010,02,20,13,42,13.40
2010,02,20,13,43,13.40
2010,02,20,13,44,13.40
2010,02,20,13,45,13.50
2010,02,20,13,46,13.60
2010,02,20,13,47,13.50
2010,02,20,13,48,13.40
2010,02,20,13,49,13.30
2010,02,20,13,50,13.20
2010,02,20,13,51,13.10
2010,02,20,13,52,13.10
2010,02,20,13,53,13.00
2010,02,20,13,54,12.90
2010,02,20,13,55,12.80
2010,02,20,13,56,12.80
2010,02,20,13,57,12.80
2010,02,20,13,58,12.80
2010,02,20,13,59,12.80
2010,02,20,14,00,12.90
2010,02,20,14,01,13.00
2010,02,20,14,02,13.10
2010,02,20,14,03,13.10
2010,02,20,14,04,13.20
2010,02,20,14,05,13.30
2010,02,20,14,06,13.20
2010,02,20,14,07,13.20
2010,02,20,14,08,13.20
2010,02,20,14,09,13.20
2010,02,20,14,10,13.20
2010,02,20,14,11,13.20
2010,02,20,14,12,13.20
2010,02,20,14,13,13.10
2010,02,20,14,14,13.10
2010,02,20,14,15,13.10
2010,02,20,14,16,13.20
2010,02,20,14,17,13.30
2010,02,20,14,18,13.20
2010,02,20,14,19,13.10
2010,02,20,14,20,13.10
2010,02,20,14,21,13.10
2010,02,20,14,22,13.10
2010,02,20,14,23,13.10
2010,02,20,14,24,13.20
2010,02,20,14,25,13.30
2010,02,20,14,26,13.50
2010,02,20,14,27,13.70
2010,02,20,14,28,13.80
2010,02,20,14,29,13.80
2010,02,20,14,30,13.90
2010,02,20,14,31,13.90
2010,02,20,14,32,13.80
2010,02,20,14,33,13.70
2010,02,20,14,34,13.80
2010,02,20,14,35,13.90
2010,02,20,14,36,13.90
2010,02,20,14,37,13.90
2010,02,20,14,38,13.80
2010,02,20,14,39,13.70
2010,02,20,14,40,13.60
2010,02,20,14,41,13.60
2010,02,20,14,42,13.50
2010,02,20,14,43,13.40
2010,02,20,14,44,13.50
2010,02,20,14,45,13.60
2010,02,20,14,46,13.60
2010,02,20,14,47,13.70
2010,02,20,14,48,13.70
2010,02,20,14,49,13.70
2010,02,20,14,50,13.70
2010,02,20,14,51,13.80
2010,02,20,14,52,13.90
2010,02,20,14,53,14.00
2010,02,20,14,54,14.10
2010,02,20,14,55,14.10
2010,02,20,14,56,14.00
2010,02,20,14,57,13.90
2010,02,20,14,58,13.70
2010,02,20,14,59,13.60
2010,02,20,15,00,13.50
2010,02,20,15,01,13.40
2010,02,20,15,02,13.30
2010,02,20,15,03,13.20
2010,02,20,15,04,13.10
2010,02,20,15,05,13.00
2010,02,20,15,06,12.90
2010,02,20,15,07,12.90
2010,02,20,15,08,12.90
2010,02,20,15,09,13.00
2010,02,20,15,10,13.00
2010,02,20,15,11,13.10
2010,02,20,15,12,13.20
2010,02,20,15,13,13.30
2010,02,20,15,14,13.30
2010,02,20,15,15,13.20
2010,02,20,15,16,13.10
2010,02,20,15,17,12.90
2010,02,20,15,18,12.80
2010,02,20,15,19,12.80
2010,02,20,15,20,12.80
2010,02,20,15,21,12.80
2010,02,20,15,22,12.70
2010,02,20,15,23,12.60
2010,02,20,15,24,12.60
2010,02,20,15,25,12.60
2010,02,20,15,26,12.60
2010,02,20,15,27,12.70
2010,02,20,15,28,12.70
2010,02,20,15,29,12.80
2010,02,20,15,30,12.80
2010,02,20,15,31,12.90
2010,02,20,15,32,12.90
2010,02,20,15,33,12.90
2010,02,20,15,34,12.90
2010,02,20,15,35,12.80
2010,02,20,15,36,12.80
2010,02,20,15,37,12.70
2010,02,20,15,38,12.60
2010,02,20,15,39,12.60
2010,02,20,15,40,12.50
2010,02,20,15,41,12.50
2010,02,20,15,42,12.60
2010,02,20,15,43,12.60
2010,02,20,15,44,12.60
2010,02,20,15,45,12.60
2010,02,20,15,46,12.60
2010,02,20,15,47,12.60
2010,02,20,15,48,12.60
2010,02,20,15,49,12.50
2010,02,20,15,50,12.50
2010,02,20,15,51,12.40
2010,02,20,15,52,12.30
2010,02,20,15,53,12.20
2010,02,20,15,54,12.00
2010,02,20,15,55,11.90
2010,02,20,15,56,11.80
2010,02,20,15,57,11.80
2010,02,20,15,58,11.80
2010,02,20,15,59,11.80
2010,02,20,16,00,11.90
2010,02,20,16,01,11.90
2010,02,20,16,02,11.90
2010,02,20,16,03,11.80
2010,02,20,16,04,11.90
2010,02,20,16,05,11.80
2010,02,20,16,06,11.80
2010,02,20,16,07,11.80
2010,02,20,16,08,11.70
2010,02,20,16,09,11.60
2010,02,20,16,10,11.60
2010,02,20,16,11,11.40
2010,02,20,16,12,11.30
2010,02,20,16,13,11.20
2010,02,20,16,14,11.10
2010,02,20,16,15,11.00
2010,02,20,16,16,10.90
2010,02,20,16,17,10.90
2010,02,20,16,18,10.90
2010,02,20,16,19,10.90
2010,02,20,16,20,10.80
2010,02,20,16,21,10.70
2010,02,20,16,22,10.60
2010,02,20,16,23,10.60
2010,02,20,16,24,10.60
2010,02,20,16,25,10.60
2010,02,20,16,26,10.60
2010,02,20,16,27,10.60
2010,02,20,16,28,10.60
2010,02,20,16,29,10.60
2010,02,20,16,30,10.60
2010,02,20,16,31,10.60
2010,02,20,16,32,10.60
2010,02,20,16,33,10.60
2010,02,20,16,34,10.60
2010,02,20,16,35,10.60
2010,02,20,16,36,10.50
2010,02,20,16,37,10.40
2010,02,20,16,38,10.40
2010,02,20,16,39,10.40
2010,02,20,16,40,10.40
2010,02,20,16,41,10.40
2010,02,20,16,42,10.30
2010,02,20,16,43,10.30
2010,02,20,16,44,10.20
2010,02,20,16,45,10.20
2010,02,20,16,46,10.10
2010,02,20,16,47,10.10
2010,02,20,16,48,10.10
2010,02,20,16,49,10.00
2010,02,20,16,50,9.90
2010,02,20,16,51,9.90
2010,02,20,16,52,9.90
2010,02,20,16,53,9.80
2010,02,20,16,54,9.70
2010,02,20,16,55,9.60
2010,02,20,16,56,9.50
2010,02,20,16,57,9.50
2010,02,20,16,58,9.40
2010,02,20,16,59,9.30
2010,02,20,17,00,9.20
2010,02,20,17,01,9.20
2010,02,20,17,02,9.20
2010,02,20,17,03,9.10
2010,02,20,17,04,9.10
2010,02,20,17,05,9.00
2010,02,20,17,06,9.00
2010,02,20,17,07,8.90
2010,02,20,17,08,8.90
2010,02,20,17,09,8.80
2010,02,20,17,10,8.80
2010,02,20,17,11,8.80
2010,02,20,17,12,8.70
2010,02,20,17,13,8.70
2010,02,20,17,14,8.70
2010,02,20,17,15,8.70
2010,02,20,17,16,8.70
2010,02,20,17,17,8.70
2010,02,20,17,18,8.60
2010,02,20,17,19,8.60
2010,02,20,17,20,8.60
2010,02,20,17,21,8.50
2010,02,20,17,22,8.50
2010,02,20,17,23,8.40
2010,02,20,17,24,8.40
2010,02,20,17,25,8.40
2010,02,20,17,26,8.30
2010,02,20,17,27,8.30
2010,02,20,17,28,8.20
2010,02,20,17,29,8.20
2010,02,20,17,30,8.20
2010,02,20,17,31,8.10
2010,02,20,17,32,8.10
2010,02,20,17,33,8.10
2010,02,20,17,34,8.00
2010,02,20,17,35,8.00
2010,02,20,17,36,7.90
2010,02,20,17,37,7.90
2010,02,20,17,38,7.90
2010,02,20,17,39,7.80
2010,02,20,17,40,7.80
2010,02,20,17,41,7.80
2010,02,20,17,42,7.80
2010,02,20,17,43,7.70
2010,02,20,17,44,7.70
2010,02,20,17,45,7.70
2010,02,20,17,46,7.60
2010,02,20,17,47,7.60
2010,02,20,17,48,7.60
2010,02,20,17,49,7.50
2010,02,20,17,50,7.50
2010,02,20,17,51,7.40